Vorticity
10 6 7 4 5 5 3 4 4 4 5 5 5 4 5 5 4 4 4 4 3 3 4 6 6 5 7 7 12 7 4 11 9 6 7 7 5 2 5 5 6 4 4
13 5 5 4 4 5 5 4 4 4 4 4 4 5 4 4 4 5 5 4 5 6 7 5 4 6 7 7 10 12 -0 4 0 9 5 5 7 2 5 5 3 5 4
12 5 5 4 4 4 5 5 6 5 5 5 4 4 4 4 3 4 4 5 5 4 3 3 4 6 6 7 9 11 9 4 14 4 6 4 5 6 -2 2 4 2 -1
4 7 4 4 5 5 5 3 3 4 5 5 7 6 5 6 6 5 4 4 3 4 3 3 4 5 5 7 7 10 10 8 6 9 5 2 6 7 7 -2 1 1 -1
3 2 3 3 3 4 5 5 5 5 4 4 2 2 2 3 4 5 7 6 6 4 4 5 5 5 4 4 7 8 11 9 8 8 8 3 9 5 8 12 9 4 2
8 6 4 1 2 3 4 3 2 1 3 3 4 5 5 4 3 2 3 3 4 4 6 5 5 6 5 5 6 7 8 10 8 8 8 8 11 2 4 8 14 9 9
-3 9 1 -0 8 4 3 3 4 4 3 1 1 1 1 1 1 1 1 3 3 3 3 5 4 6 7 6 6 7 7 9 9 8 10 4 5 2 -2 4 9 9 9
5 2 2 2 3 2 6 4 4 3 2 2 1 2 3 3 3 4 5 6 5 4 3 3 5 4 5 4 4 5 8 9 11 9 10 2 1 2 -1 4 6 9 7
2 2 0 3 5 4 5 4 5 5 5 5 6 7 7 8 9 10 11 5 5 4 4 4 2 5 5 6 4 4 5 7 11 11 9 3 0 -1 -0 2 4 6 7
1 4 8 8 8 9 8 8 8 7 7 7 7 7 7 7 7 8 10 10 10 8 4 6 4 4 5 5 5 5 4 5 7 14 13 8 1 2 -0 -3 1 5 5
7 7 6 6 6 6 7 7 8 8 8 8 8 9 8 8 8 8 8 8 8 9 11 6 7 7 4 6 6 5 5 4 5 7 15 13 10 5 -3 7 8 8 6
6 6 5 6 6 5 5 5 5 5 5 5 7 8 6 6 6 7 7 7 7 7 8 9 8 8 6 2 5 7 5 4 4 5 7 17 16 4 -4 5 -4 6 1
4 4 4 4 4 4 4 4 4 4 4 4 4 4 6 6 5 6 7 7 9 8 7 7 7 10 9 7 4 2 7 6 4 4 4 8 16 12 4 -2 1 1 5
4 5 4 4 3 3 3 3 4 4 3 3 4 5 4 4 5 5 4 5 5 7 8 9 9 7 8 8 6 8 4 8 7 6 3 3 10 13 12 8 1 8 6
4 3 3 3 2 2 3 3 3 2 3 4 4 4 5 5 5 5 5 4 4 4 5 7 8 10 9 7 10 5 8 2 3 8 5 4 4 9 13 11 10 2 -3
6 6 6 6 5 4 2 3 4 5 6 5 5 5 4 4 5 4 4 5 5 5 3 5 5 6 7 10 8 11 5 7 5 1 6 8 3 5 11 13 3 5 -0
7 6 6 7 8 9 10 9 8 7 6 7 8 8 8 7 6 5 5 4 4 5 5 4 3 5 5 7 8 9 9 4 6 7 4 1 7 4 3 11 15 8 4
7 8 8 9 8 8 7 6 7 7 7 7 7 7 7 7 6 6 7 6 5 5 4 4 5 3 3 4 7 9 8 10 5 4 5 5 4 6 7 2 2 9 14
8 8 7 6 5 5 5 5 5 4 4 5 6 6 7 7 7 7 6 6 7 6 5 5 5 4 4 4 3 5 8 9 8 10 6 7 5 4 6 6 7 5 9
7 6 6 6 6 6 5 6 8 9 11 11 10 9 9 9 9 9 9 8 6 6 7 6 5 4 5 5 4 4 3 4 8 9 8 8 9 7 2 2 5 10 5
7 7 7 6 7 8 9 9 8 9 9 10 11 11 11 12 13 12 13 12 10 10 8 7 5 7 4 6 5 5 5 4 4 5 8 10 8 7 10 12 7 -2 2
6 7 7 8 9 8 9 11 12 12 11 11 10 9 10 8 7 8 9 10 11 12 13 13 12 8 7 5 4 6 7 3 7 4 5 5 8 11 9 6 10 11 8
10 10 10 8 9 11 10 8 7 7 9 8 7 7 6 6 6 6 6 6 6 7 7 7 11 13 14 10 7 5 11 9 6 4 4 4 5 4 8 12 10 8 8
12 12 12 9 8 8 7 6 6 7 4 1 1 -0 -1 0 1 1 0 2 3 2 1 2 3 6 9 9 13 11 5 6 10 10 2 8 9 7 5 7 12 11 12
8 8 6 7 6 5 2 1 -0 -1 -1 0 2 1 2 4 6 6 6 8 6 5 2 -1 -2 -1 1 4 5 9 10 7 7 10 14 -1 4 9 10 3 -1 9 13
7 6 3 -1 -2 -1 -0 -0 -1 2 6 12 15 14 14 15 15 15 16 15 12 14 16 16 15 13 9 6 3 3 5 8 5 6 8 9 6 -4 5 7 6 4 2
Height
3187 3187 3187 3188 3188 3188 3188 3188 3188 3188 3188 3188 3188 3188 3187 3186 3186 3185 3185 3184 3184 3183 3182 3181 3180 3178 3177 3176 3176 3176 3176 3176 3176 3177 3179 3180 3181 3182 3182 3182 3183 3183 3185
3186 3187 3187 3188 3189 3189 3189 3189 3189 3188 3188 3188 3188 3187 3187 3187 3186 3185 3185 3184 3184 3183 3182 3181 3180 3179 3177 3176 3176 3176 3176 3176 3176 3177 3178 3179 3181 3182 3182 3183 3184 3184 3184
3186 3187 3188 3188 3188 3189 3188 3188 3188 3188 3188 3188 3188 3188 3188 3187 3186 3185 3184 3184 3184 3183 3182 3181 3180 3179 3179 3177 3177 3176 3176 3176 3175 3177 3178 3180 3181 3183 3183 3184 3184 3185 3185
3185 3186 3188 3189 3189 3189 3189 3189 3189 3189 3189 3189 3189 3188 3188 3188 3187 3186 3185 3184 3183 3183 3182 3181 3180 3180 3179 3178 3177 3177 3176 3176 3176 3177 3178 3180 3181 3182 3183 3184 3185 3186 3186
3184 3185 3187 3188 3188 3189 3190 3190 3190 3189 3189 3188 3188 3188 3187 3187 3187 3187 3186 3186 3184 3183 3182 3181 3180 3179 3179 3179 3178 3177 3177 3176 3176 3177 3178 3179 3180 3181 3183 3184 3184 3185 3186
3187 3188 3188 3187 3188 3189 3189 3188 3189 3188 3188 3188 3188 3187 3187 3186 3186 3185 3185 3185 3184 3184 3183 3182 3181 3179 3178 3178 3177 3177 3176 3176 3176 3176 3177 3178 3180 3182 3183 3183 3184 3184 3185
3186 3187 3188 3188 3188 3188 3188 3187 3188 3187 3187 3187 3187 3186 3185 3184 3184 3184 3183 3183 3182 3182 3182 3181 3181 3180 3179 3178 3177 3176 3176 3175 3175 3177 3178 3178 3179 3181 3182 3182 3183 3183 3184
3185 3186 3186 3187 3186 3186 3186 3185 3185 3185 3185 3184 3184 3183 3183 3182 3181 3181 3180 3181 3180 3180 3180 3179 3179 3178 3178 3178 3177 3176 3175 3175 3174 3175 3176 3177 3179 3180 3180 3181 3182 3183 3183
3185 3185 3185 3185 3185 3185 3185 3184 3183 3182 3181 3181 3180 3180 3178 3178 3177 3177 3177 3177 3177 3177 3177 3177 3177 3177 3176 3176 3176 3175 3174 3174 3174 3174 3174 3176 3177 3178 3180 3181 3181 3181 3182
3184 3184 3183 3183 3183 3183 3182 3180 3179 3179 3178 3177 3177 3176 3175 3174 3174 3174 3174 3174 3173 3174 3173 3173 3173 3173 3174 3173 3173 3172 3172 3172 3172 3172 3173 3174 3175 3175 3178 3180 3180 3180 3180
3183 3182 3182 3182 3181 3181 3180 3179 3178 3177 3175 3174 3173 3174 3173 3172 3171 3171 3170 3170 3169 3169 3169 3169 3169 3170 3170 3170 3170 3170 3170 3169 3170 3170 3171 3171 3172 3174 3175 3176 3179 3179 3180
3181 3181 3181 3180 3180 3178 3178 3177 3176 3174 3172 3172 3172 3171 3169 3168 3168 3168 3167 3166 3166 3165 3165 3165 3165 3164 3165 3165 3166 3166 3167 3167 3167 3167 3168 3169 3170 3171 3172 3172 3176 3177 3178
3179 3179 3178 3178 3177 3177 3176 3175 3174 3172 3170 3170 3170 3170 3168 3166 3165 3165 3164 3163 3162 3160 3160 3160 3160 3160 3160 3161 3162 3163 3163 3163 3164 3164 3164 3166 3166 3167 3169 3170 3173 3174 3176
3176 3176 3176 3175 3174 3174 3173 3172 3170 3168 3166 3166 3168 3167 3165 3163 3162 3161 3159 3158 3157 3157 3157 3156 3157 3155 3155 3156 3157 3158 3158 3159 3160 3161 3161 3162 3163 3164 3165 3166 3168 3170 3172
3172 3171 3171 3170 3169 3168 3168 3166 3165 3163 3162 3162 3162 3161 3160 3159 3158 3157 3155 3154 3153 3153 3152 3151 3151 3151 3150 3150 3151 3152 3152 3153 3155 3156 3157 3158 3158 3159 3161 3162 3164 3166 3169
3167 3167 3166 3165 3164 3163 3163 3161 3159 3158 3156 3155 3154 3154 3153 3152 3151 3151 3150 3149 3149 3149 3148 3147 3145 3144 3145 3145 3145 3146 3147 3147 3148 3150 3152 3153 3155 3155 3157 3159 3161 3162 3164
3163 3161 3160 3159 3157 3156 3155 3155 3153 3151 3150 3148 3146 3146 3146 3145 3144 3143 3142 3141 3141 3142 3142 3141 3140 3139 3139 3139 3139 3139 3139 3141 3142 3144 3145 3148 3148 3150 3152 3154 3156 3157 3159
3156 3155 3154 3153 3151 3150 3149 3147 3146 3144 3143 3141 3139 3138 3137 3136 3135 3134 3134 3133 3133 3133 3133 3133 3133 3132 3132 3132 3132 3132 3132 3133 3135 3137 3137 3139 3142 3144 3145 3147 3150 3152 3153
3149 3148 3147 3146 3145 3144 3142 3140 3138 3137 3135 3134 3131 3129 3128 3127 3126 3125 3124 3123 3123 3124 3124 3124 3124 3123 3124 3124 3124 3124 3125 3126 3127 3128 3131 3132 3133 3136 3138 3140 3142 3144 3147
3142 3141 3141 3139 3138 3136 3135 3133 3131 3128 3126 3124 3122 3120 3119 3118 3116 3115 3114 3113 3113 3113 3114 3113 3114 3114 3114 3114 3114 3116 3116 3117 3118 3119 3121 3123 3126 3127 3129 3132 3134 3136 3138
3135 3134 3133 3131 3130 3128 3126 3125 3123 3121 3119 3116 3114 3112 3110 3108 3106 3105 3104 3104 3101 3101 3102 3102 3102 3103 3105 3104 3102 3104 3106 3108 3110 3111 3113 3114 3116 3119 3120 3122 3124 3128 3130
3130 3128 3127 3125 3122 3120 3118 3116 3114 3112 3111 3108 3107 3104 3101 3099 3097 3096 3094 3093 3091 3090 3090 3090 3089 3090 3092 3094 3091 3092 3093 3098 3098 3101 3103 3104 3106 3108 3109 3112 3114 3117 3121
3120 3119 3117 3116 3114 3112 3110 3108 3106 3104 3102 3100 3098 3096 3093 3090 3088 3086 3084 3082 3081 3079 3079 3078 3078 3076 3077 3083 3082 3081 3081 3082 3084 3090 3092 3093 3095 3097 3099 3102 3104 3106 3110
3116 3114 3112 3110 3107 3104 3101 3098 3095 3092 3090 3089 3086 3085 3084 3080 3078 3075 3072 3070 3068 3067 3066 3067 3066 3065 3063 3064 3071 3071 3068 3069 3071 3073 3079 3081 3083 3086 3089 3091 3094 3097 3099
3108 3106 3104 3102 3100 3096 3093 3089 3085 3081 3076 3072 3071 3067 3064 3064 3062 3060 3057 3054 3052 3051 3050 3050 3052 3052 3051 3048 3051 3056 3058 3058 3058 3059 3060 3069 3071 3073 3078 3080 3083 3086 3089
3101 3099 3096 3094 3091 3086 3082 3077 3072 3067 3062 3058 3054 3049 3046 3043 3040 3039 3036 3034 3033 3032 3031 3030 3029 3032 3034 3034 3034 3037 3041 3043 3045 3045 3045 3049 3054 3062 3064 3068 3071 3074 3078